Tracking 19575 objects as of 18-Feb-2019
HD Live streaming from Space Station
objects crossing your sky now

CARTOSAT-1

Track CARTOSAT-1 now!
10-day predictions
CARTOSAT-1 is classified as:


NORAD ID: 28649
Int'l Code: 2005-017A
Perigee: 624.5 km
Apogee: 625.7 km
Inclination: 97.9 °
Period: 97.1 minutes
Semi major axis: 6996 km
RCS: 4.7551 m2 (large)
Launch date: May 5, 2005
Source: India (IND)
Launch site: SRIHARIKOTA (SRI)

Remote sensing and mapping, land use, forest cover, river flow assessments.
aabbcc
Your satellite tracking list
Your tracking list is empty




NASA's NSSDC Master Catalog

Two Line Element Set (TLE):
1 28649U 05017A   19049.39438868  .00000084  00000-0  16561-4 0  9999
2 28649  97.8686 121.9587 0000843 142.0317 218.0958 14.83615671746597
Source of the keplerian elements: AFSPC